Date String (YYYY-MM-DD hh:mm:ss) UTC,Instrument flags,absolute air pressure of the measurement (hPa),sample flow rate (lpm),inlet stack bypass flow (lpm),air temperature of the measurement (°C),ambient temperature measured by the external sensor (°C),aerosol sample conditioner tube jacket temperature (°C),OPC LED temperature (°C),internal box temperature (°C),relative humidity of the measurement (%),span deviation,mass concentration of particles derived from Lorenz-Mie calculation of OPC scattering (μg/m³),mass concentration of particles derived from Lorenz-Mie calculation of OPC scattering (μg/m³),mass concentration of particles derived from Lorenz-Mie calculation of OPC scattering (μg/m³)
DateTimeUTC,F1_M11,P_M11,Q1_M11,Q2_M11,T1_M11,T2_M11,T3_M11,T4_M11,T5_M11,U1_M11,ZSPAN_M11,X2_M11,X0_M11,X1_M11
2023-09-16 21:00:00,SystemResetWarning,0836.1,5.00,000.00,027.9,026.3,000.0,036.3,029.5,19.7,0000.0,0004.17,0008.03,0003.72
2023-09-16 21:01:00,SystemResetWarning,0836.1,5.00,000.00,028.0,026.5,000.0,036.3,029.6,18.8,0000.0,0004.13,0007.97,0003.72
2023-09-16 21:02:00,SystemResetWarning,0836.1,5.00,000.00,028.0,026.7,000.0,036.3,029.7,18.7,0000.0,0004.13,0007.88,0003.73
2023-09-16 21:03:00,SystemResetWarning,0836.1,5.01,000.00,028.0,026.9,000.0,036.3,029.8,18.9,0000.0,0004.13,0007.84,0003.73
2023-09-16 21:04:00,SystemResetWarning,0836.1,4.99,000.00,028.1,026.6,000.0,036.3,029.7,18.7,0000.0,0004.12,0007.63,0003.74
2023-09-16 21:05:00,SystemResetWarning,0836.0,4.99,000.00,028.0,025.2,000.0,036.2,029.3,18.8,0000.0,0004.11,0007.52,0003.73
2023-09-16 21:06:00,SystemResetWarning,0836.0,5.02,000.00,027.9,024.8,000.0,036.2,029.3,18.6,0000.0,0004.10,0007.50,0003.74
2023-09-16 21:07:00,SystemResetWarning,0836.0,4.99,000.00,027.9,025.0,000.0,036.2,029.2,19.4,0000.0,0004.12,0007.30,0003.74
2023-09-16 21:08:00,SystemResetWarning,0836.0,4.99,000.00,027.8,025.2,000.0,036.2,029.3,18.9,0000.0,0004.13,0006.92,0003.75
2023-09-16 21:09:00,SystemResetWarning,0835.9,5.00,000.00,027.8,025.6,000.0,036.2,029.3,19.1,0000.0,0004.12,0007.37,0003.75
2023-09-16 21:10:00,SystemResetWarning,0836.0,5.00,000.00,027.9,025.9,000.0,036.2,029.4,19.4,0000.0,0004.12,0007.44,0003.75
2023-09-16 21:11:00,SystemResetWarning,0835.9,5.01,000.00,027.9,026.2,000.0,036.2,029.5,19.4,0000.0,0004.13,0007.63,0003.75
2023-09-16 21:12:00,SystemResetWarning,0836.0,4.99,000.00,027.9,026.4,000.0,036.3,029.6,19.4,0000.0,0004.13,0007.63,0003.75
2023-09-16 21:13:00,SystemResetWarning,0835.9,4.99,000.00,028.0,026.6,000.0,036.3,029.7,19.1,0000.0,0004.08,0007.54,0003.74
2023-09-16 21:14:00,SystemResetWarning,0835.9,5.00,000.00,028.0,026.8,000.0,036.3,029.7,18.8,0000.0,0004.06,0007.52,0003.74
2023-09-16 21:15:00,SystemResetWarning,0835.9,4.99,000.00,028.0,026.1,000.0,036.3,029.5,18.7,0000.0,0004.08,0007.55,0003.74
2023-09-16 21:16:00,SystemResetWarning,0835.9,5.00,000.00,027.9,024.4,000.0,036.2,028.9,18.5,0000.0,0004.08,0007.53,0003.73
2023-09-16 21:17:00,SystemResetWarning,0835.9,5.01,000.00,027.8,023.8,000.0,036.1,028.9,18.7,0000.0,0004.07,0007.53,0003.73
2023-09-16 21:18:00,SystemResetWarning,0835.9,5.01,000.00,027.7,024.0,000.0,036.1,028.9,19.2,0000.0,0004.06,0007.47,0003.74
2023-09-16 21:19:00,SystemResetWarning,0835.9,5.00,000.00,027.6,024.4,000.0,036.1,028.9,19.4,0000.0,0004.07,0007.51,0003.75
2023-09-16 21:20:00,SystemResetWarning,0835.9,4.99,000.00,027.6,024.8,000.0,036.1,029.0,19.1,0000.0,0004.06,0006.80,0003.75
2023-09-16 21:21:00,SystemResetWarning,0835.9,5.00,000.00,027.6,025.2,000.0,036.1,029.1,19.0,0000.0,0004.06,0006.58,0003.75
2023-09-16 21:22:00,SystemResetWarning,0835.9,5.01,000.00,027.7,025.6,000.0,036.1,029.2,18.8,0000.0,0004.06,0006.52,0003.74
2023-09-16 21:23:00,SystemResetWarning,0835.9,4.99,000.00,027.7,025.9,000.0,036.1,029.3,20.0,0000.0,0004.07,0007.22,0003.74
2023-09-16 21:24:00,SystemResetWarning,0835.9,4.99,000.00,027.7,026.2,000.0,036.1,029.4,20.0,0000.0,0004.08,0007.30,0003.75
2023-09-16 21:25:00,SystemResetWarning,0835.9,5.00,000.00,027.8,026.4,000.0,036.1,029.5,19.4,0000.0,0004.07,0007.22,0003.74
2023-09-16 21:26:00,SystemResetWarning,0835.9,5.02,000.00,027.8,026.6,000.0,036.1,029.5,18.9,0000.0,0004.04,0007.30,0003.73
2023-09-16 21:27:00,SystemResetWarning,0835.9,5.01,000.00,027.9,026.8,000.0,036.2,029.6,18.2,0000.0,0004.06,0007.84,0003.74
2023-09-16 21:28:00,SystemResetWarning,0835.9,4.99,000.00,027.9,026.9,000.0,036.2,029.7,18.3,0000.0,0004.09,0007.91,0003.74
2023-09-16 21:29:00,SystemResetWarning,0835.9,5.00,000.00,028.0,027.1,000.0,036.2,029.7,18.1,0000.0,0004.11,0007.97,0003.74
2023-09-16 21:30:00,SystemResetWarning,0835.9,4.99,000.00,028.0,026.9,000.0,036.2,029.7,18.1,0000.0,0004.10,0007.95,0003.73
2023-09-16 21:31:00,SystemResetWarning,0835.9,5.00,000.00,028.0,025.3,000.0,036.2,029.3,18.5,0000.0,0004.12,0008.08,0003.72
2023-09-16 21:32:00,SystemResetWarning,0835.9,5.00,000.00,027.8,024.0,000.0,036.1,029.0,18.3,0000.0,0004.14,0008.16,0003.73
2023-09-16 21:33:00,SystemResetWarning,0835.8,5.00,000.00,027.7,024.0,000.0,036.1,029.0,18.2,0000.0,0004.15,0008.13,0003.73
2023-09-16 21:34:00,SystemResetWarning,0835.9,5.01,000.00,027.7,024.3,000.0,036.0,028.9,19.0,0000.0,0004.10,0007.68,0003.72
2023-09-16 21:35:00,SystemResetWarning,0835.9,5.01,000.00,027.6,024.7,000.0,036.1,029.0,19.3,0000.0,0004.11,0007.65,0003.71
2023-09-16 21:36:00,SystemResetWarning,0835.8,4.99,000.00,027.6,025.1,000.0,036.1,029.1,19.1,0000.0,0004.14,0007.73,0003.71
2023-09-16 21:37:00,SystemResetWarning,0835.8,5.00,000.00,027.7,025.5,000.0,036.1,029.2,19.7,0000.0,0004.16,0008.13,0003.71
2023-09-16 21:38:00,SystemResetWarning,0835.8,5.00,000.00,027.7,025.8,000.0,036.1,029.3,20.0,0000.0,0004.14,0008.28,0003.70
2023-09-16 21:39:00,SystemResetWarning,0835.8,5.01,000.00,027.7,026.1,000.0,036.1,029.4,18.6,0000.0,0004.12,0008.10,0003.69
2023-09-16 21:40:00,SystemResetWarning,0835.8,4.99,000.00,027.8,026.4,000.0,036.1,029.5,18.6,0000.0,0004.07,0008.07,0003.68
2023-09-16 21:41:00,SystemResetWarning,0835.8,4.99,000.00,027.8,026.6,000.0,036.1,029.5,18.8,0000.0,0004.04,0007.98,0003.68
2023-09-16 21:42:00,SystemResetWarning,0835.8,5.00,000.00,027.9,026.7,000.0,036.1,029.6,19.8,0000.0,0004.02,0007.82,0003.67
2023-09-16 21:43:00,SystemResetWarning,0835.9,5.00,000.00,027.9,026.9,000.0,036.1,029.7,19.3,0000.0,0003.97,0007.65,0003.66
2023-09-16 21:44:00,SystemResetWarning,0835.9,5.00,000.00,028.0,027.0,000.0,036.2,029.8,18.7,0000.0,0003.96,0007.59,0003.66
2023-09-16 21:45:00,SystemResetWarning,0835.9,5.01,000.00,028.0,027.2,000.0,036.2,029.8,18.9,0000.0,0004.02,0007.72,0003.67
2023-09-16 21:46:00,SystemResetWarning,0835.9,5.00,000.00,028.1,027.0,000.0,036.2,029.8,19.0,0000.0,0004.05,0007.78,0003.67
2023-09-16 21:47:00,SystemResetWarning,0835.8,4.99,000.00,028.0,025.4,000.0,036.2,029.3,18.6,0000.0,0004.04,0007.90,0003.67
2023-09-16 21:48:00,SystemResetWarning,0835.8,5.01,000.00,027.9,024.0,000.0,036.1,029.0,18.7,0000.0,0004.05,0007.78,0003.68
2023-09-16 21:49:00,SystemResetWarning,0835.8,5.01,000.00,027.8,024.0,000.0,036.1,029.0,18.9,0000.0,0004.04,0006.81,0003.69
2023-09-16 21:50:00,SystemResetWarning,0835.8,5.00,000.00,027.7,024.3,000.0,036.1,029.0,19.7,0000.0,0004.03,0006.83,0003.69
2023-09-16 21:51:00,SystemResetWarning,0835.8,5.00,000.00,027.7,024.7,000.0,036.1,029.1,20.3,0000.0,0004.03,0007.22,0003.70
2023-09-16 21:52:00,SystemResetWarning,0835.9,5.00,000.00,027.7,025.1,000.0,036.1,029.2,20.0,0000.0,0004.05,0007.41,0003.70
2023-09-16 21:53:00,SystemResetWarning,0835.9,5.00,000.00,027.7,025.5,000.0,036.1,029.2,19.8,0000.0,0004.07,0008.07,0003.71
2023-09-16 21:54:00,SystemResetWarning,0835.9,5.00,000.00,027.7,025.8,000.0,036.1,029.3,19.1,0000.0,0004.09,0008.18,0003.71
2023-09-16 21:55:00,SystemResetWarning,0835.8,5.00,000.00,027.7,026.1,000.0,036.1,029.4,19.4,0000.0,0004.06,0008.12,0003.70
2023-09-16 21:56:00,SystemResetWarning,0835.9,5.00,000.00,027.8,026.4,000.0,036.1,029.5,18.9,0000.0,0004.03,0008.07,0003.69
2023-09-16 21:57:00,SystemResetWarning,0835.9,5.00,000.00,027.8,026.6,000.0,036.1,029.6,18.9,0000.0,0004.01,0008.09,0003.69
2023-09-16 21:58:00,SystemResetWarning,0835.9,5.00,000.00,027.9,026.8,000.0,036.1,029.6,18.9,0000.0,0004.01,0007.91,0003.70
2023-09-16 21:59:00,SystemResetWarning,0835.9,4.99,000.00,027.9,026.9,000.0,036.2,029.7,18.8,0000.0,0004.00,0007.86,0003.70
